Content
SEND FEEDBACK

Daily
Averages
Monthly
Summary
Switzerland

GENEVA, SWITZERLAND


Home > Europe > Switzerland
Elevation: 1364 feet     Latitude: 46 15N     Longitude: 006 08E

WEATHER
 
SELECT A DAY
Number of Records: 306,355;   Date Range: 7/1/96 - 9/20/14
 
SHARE

PRINT THIS DATA

[ ← Previous Day ]
WEATHER ALMANAC - AUGUST 25, 2013
[ Next Day → ]
[ °C ]   °F
Weather ElementAverageHighLow
Temperature62.6 °F69.8 °F (3:50 pm)57 °F (8:00 am)
Dewpoint52.3 °F55.4 °F (12:20 am)47 °F (1:00 pm)
Humidity68.6 %94 % (5:20 am)38 % (1:00 pm)
Barometer29.92 in29.98 in (12:50 am)29.85 in (4:00 pm)
Wind Speed5.2 mph13.8 mph (2:00 am)
Weather ElementAverage
Visibility8 mi
Wind DirectionESE (107.4 °)

Weather ElementTotal
Precipitation---
Heating Degree Days1.6 (Base 65)
Growing Degree Days13.4 (Base 50)
Averaged from 62 records on August 25, 2013
WEATHER CONDITIONS BREAKOUT
WIND DIRECTION BREAKOUT
WEATHER BY HOUR - AUGUST 25, 2013
[ °C ]   °F
Local TimeTemperatureDewpointHumidityBarometerVisibilityWind DirectionWind SpeedGust SpeedPrecipitationEventsConditions
12:20 AM60.8 °F55.4 °F82 %29.95 in6.2 miSouth (190°)6.9 mphMostly Cloudy
12:50 AM60.8 °F55.4 °F82 %29.98 in6.2 miSSW (210°)8.1 mphMostly Cloudy
1:00 AM60.0 °F54.0 °F74 %29.95 inSSW (210°)10.4 mph
1:20 AM60.8 °F55.4 °F82 %29.98 in6.2 miSSW (210°)6.9 mphMostly Cloudy
1:50 AM59.0 °F55.4 °F88 %29.98 in6.2 miWSW (240°)5.8 mphMostly Cloudy
2:00 AM60.0 °F53.0 °F70 %29.95 in25.0 miSW (220°)13.8 mphMostly Cloudy
2:20 AM60.8 °F53.6 °F77 %29.98 in6.2 miSW (220°)10.4 mphScattered Clouds
2:50 AM59.0 °F53.6 °F82 %29.95 in6.2 miWSW (240°)5.8 mphScattered Clouds
3:00 AM58.0 °F53.0 °F80 %29.96 inSW (230°)5.8 mph
3:50 AM59.0 °F55.4 °F88 %29.95 in6.2 miSSW (200°)9.2 mphMostly Cloudy
4:20 AM59.0 °F55.4 °F88 %29.95 in6.2 miSouth (190°)6.9 mphMostly Cloudy
4:50 AM59.0 °F55.4 °F88 %29.95 in6.2 miWNW (290°)4.6 mphMostly Cloudy
5:20 AM57.2 °F55.4 °F94 %29.95 in6.2 miVariable1.2 mphMostly Cloudy
5:50 AM57.2 °F55.4 °F94 %29.95 in6.2 miCalmMostly Cloudy
6:20 AM57.2 °F55.4 °F94 %29.95 in6.2 miWNW (290°)2.3 mphMostly Cloudy
6:50 AM57.2 °F55.4 °F94 %29.95 in6.2 miWNW (290°)4.6 mphMostly Cloudy
7:00 AM58.0 °F54.0 °F80 %29.94 inWest (270°)3.5 mph
7:20 AM57.2 °F55.4 °F94 %29.95 in6.2 miSSE (150°)3.5 mphMostly Cloudy
7:50 AM57.2 °F55.4 °F94 %29.95 in6.2 miNE (40°)1.2 mphMostly Cloudy
8:00 AM57.0 °F54.0 °F88 %29.94 in31.0 miESE (110°)2.3 mphPartly Cloudy
8:20 AM57.2 °F55.4 °F94 %29.95 in6.2 miENE (60°)1.2 mphMostly Cloudy
8:50 AM57.2 °F55.4 °F94 %29.95 in6.2 miEast (90°)1.2 mphScattered Clouds
9:20 AM62.6 °F53.6 °F72 %29.95 in6.2 miSE (140°)3.5 mphScattered Clouds
9:50 AM64.4 °F53.6 °F68 %29.95 in6.2 miSE (130°)3.5 mphScattered Clouds
10:20 AM66.2 °F53.6 °F64 %29.95 in6.2 miNE (50°)4.6 mphScattered Clouds
10:50 AM66.2 °F51.8 °F60 %29.95 in6.2 miEast (80°)5.8 mphScattered Clouds
11:20 AM64.4 °F50.0 °F59 %29.95 in6.2 miESE (120°)4.6 mphScattered Clouds
11:50 AM66.2 °F51.8 °F60 %29.92 in6.2 miENE (70°)5.8 mphPartly Cloudy
12:00 PM65.0 °F49.0 °F47 %29.90 inENE (70°)6.9 mph
12:20 PM68.0 °F51.8 °F56 %29.92 in6.2 miEast (80°)6.9 mphPartly Cloudy
12:50 PM68.0 °F48.2 °F49 %29.92 in6.2 miENE (70°)5.8 mphScattered Clouds
1:00 PM67.0 °F47.0 °F38 %29.88 inNE (50°)4.6 mph
1:20 PM68.0 °F48.2 °F49 %29.89 in6.2 miNE (50°)4.6 mphMostly Cloudy
1:50 PM66.2 °F50.0 °F56 %29.92 in6.2 miNorth (350°)4.6 mphMostly Cloudy
2:00 PM68.0 °F50.0 °F42 %29.87 in31.0 miNNE (20°)5.8 mphScattered Clouds
2:20 PM66.2 °F50.0 °F56 %29.89 in6.2 miNorth (350°)2.3 mphMostly Cloudy
2:50 PM68.0 °F50.0 °F52 %29.89 in6.2 miENE (60°)8.1 mphMostly Cloudy
3:00 PM65.0 °F49.0 °F45 %29.86 inNE (50°)9.2 mph
3:20 PM66.2 °F50.0 °F56 %29.89 in6.2 miNNE (30°)6.9 mphMostly Cloudy
3:50 PM69.8 °F51.8 °F53 %29.89 in6.2 miNE (50°)3.5 mphMostly Cloudy
4:00 PM68.0 °F51.0 °F43 %29.85 inENE (70°)6.9 mph
4:20 PM68.0 °F51.8 °F56 %29.89 in6.2 miENE (70°)5.8 mphMostly Cloudy
4:50 PM68.0 °F50.0 °F52 %29.89 in6.2 miENE (60°)4.6 mphMostly Cloudy
5:20 PM68.0 °F50.0 °F52 %29.89 in6.2 miENE (70°)8.1 mphScattered Clouds
5:50 PM66.2 °F50.0 °F56 %29.89 in6.2 miNE (40°)5.8 mphScattered Clouds
6:00 PM66.0 °F50.0 °F46 %29.85 inNNE (30°)6.9 mph
6:20 PM66.2 °F51.8 °F60 %29.89 in6.2 miNNE (30°)8.1 mphMostly Cloudy
6:50 PM66.2 °F50.0 °F56 %29.89 in6.2 miNNE (30°)8.1 mphMostly Cloudy
7:00 PM66.0 °F49.0 °F43 %29.85 inNNE (30°)9.2 mph
7:20 PM66.2 °F51.8 °F60 %29.89 in6.2 miNNE (30°)8.1 mphScattered Clouds
7:50 PM64.4 °F51.8 °F64 %29.89 in6.2 miNNE (20°)6.9 mphScattered Clouds
8:00 PM64.0 °F51.0 °F53 %29.86 in31.0 miNorth (10°)4.6 mphPartly Cloudy
8:20 PM64.4 °F51.8 °F64 %29.89 in6.2 miNorth (10°)4.6 mphMostly Cloudy
8:50 PM62.6 °F51.8 °F68 %29.89 in6.2 miNorth (10°)4.6 mphMostly Cloudy
9:00 PM62.0 °F51.0 °F57 %29.89 inNNE (20°)5.8 mph
9:20 PM60.8 °F51.8 °F72 %29.92 in6.2 miNorth (10°)3.5 mphMostly Cloudy
9:50 PM60.8 °F51.8 °F72 %29.92 in6.2 miVariable3.5 mphMostly Cloudy
10:00 PM60.0 °F51.0 °F64 %29.91 inNorth (350°)2.3 mph
10:20 PM59.0 °F51.8 °F77 %29.92 in6.2 miVariable1.2 mphMostly Cloudy
10:50 PM57.2 °F51.8 °F82 %29.92 in6.2 miCalmMostly Cloudy
11:20 PM57.2 °F53.6 °F88 %29.92 in6.2 miCalmMostly Cloudy
11:50 PM57.2 °F53.6 °F88 %29.92 in6.2 miCalmMostly Cloudy
Hourly data recorded from LSGG, located miles away from Geneva, Switzerland







STORIES FROM OUR PARTNERS